Stations météo

réclame
Mon MeteoGroup
Storlien-Visjovalen A, Suède (2207): Température de l'air & dewpoint: 14.01.2020 08:00:00 - 20.01.2020 08:00:00 (CET)Storlien-Visjovalen A, Suède (2207): Vitesse du vent & gusts: 14.01.2020 08:00:00 - 20.01.2020 08:00:00 (CET)Storlien-Visjovalen A, Suède (2207): Direction du vent: 14.01.2020 08:00:00 - 20.01.2020 08:00:00 (CET)Storlien-Visjovalen A, Suède (2207): reduced air pressure: 14.01.2020 08:00:00 - 20.01.2020 08:00:00 (CET)Storlien-Visjovalen A, Suède (2207): visibility: 14.01.2020 08:00:00 - 20.01.2020 08:00:00 (CET)Storlien-Visjovalen A, Suède (2207): Quantités de précipitations: 14.01.2020 08:00:00 - 20.01.2020 08:00:00 (CET)
Date & Time tt [°C] td [°C] ff [km/h] ff [knt] fx [km/h] fx [knt] dd ppp [hPa] vv [km] rr [mm]
20.01.2020 08:00:00 2,8 2,5 29 16 53 29 W 1019,6 2,7 -
20.01.2020 07:00:00 3,0 2,6 27 15 54 29 W 1019,9 3,0 1,9
20.01.2020 06:00:00 3,4 3,0 31 17 63 34 W 1020,1 8 0,1
20.01.2020 05:00:00 - 3,1 30 16 54 29 W 1020,1 38 0,0
20.01.2020 04:00:00 1,6 1,5 19 11 36 19 WSW 1021,0 27 0,1
20.01.2020 03:00:00 0,5 0,4 16 8 43 23 SW 1021,6 5 0,1
20.01.2020 02:00:00 -0,2 -0,5 19 11 44 24 SSW 1022,0 2,7 0,1
20.01.2020 01:00:00 -0,5 -0,8 18 10 43 23 SW 1023,3 9 0,0
20.01.2020 00:00:00 -1,3 -1,7 20 11 38 20 SSW 1023,7 1,5 0,1
19.01.2020 23:00:00 -1,7 -2,4 15 8 - - SW 1024,7 28 0,0
19.01.2020 22:00:00 -2,1 -2,9 13 7 39 21 SSW 1026,0 39 0,0
19.01.2020 21:00:00 -1,6 -2,3 16 9 34 18 SW 1027,1 6 0,0
19.01.2020 20:00:00 -1,8 -2,4 13 7 31 17 SW 1027,9 41 0,0
19.01.2020 19:00:00 -1,9 -2,3 13 7 42 23 WSW 1028,1 31 0,0
19.01.2020 18:00:00 -1,9 -2,3 24 13 45 24 W 1027,8 25 0,0
19.01.2020 17:00:00 -1,8 -2,1 18 10 54 29 W 1028,7 22 0,0
19.01.2020 16:00:00 -2,2 -2,6 29 16 45 24 W 1028,2 22 0,0
19.01.2020 15:00:00 -2,1 -2,4 21 11 50 27 WNW 1027,4 19 0,0
19.01.2020 14:00:00 -1,9 -2,2 28 15 63 34 W 1026,1 17 0,0
19.01.2020 13:00:00 -1,5 -1,6 35 19 66 36 WNW 1025,2 8 0,0
19.01.2020 12:00:00 -1,3 -1,4 30 16 60 32 W 1024,8 3,5 0,1
19.01.2020 11:00:00 -1,0 -1,1 32 17 61 33 W 1022,8 1,0 0,1
19.01.2020 10:00:00 -0,9 -1,0 35 19 67 36 W 1020,8 1,2 0,2
19.01.2020 09:00:00 -0,8 -0,9 34 18 67 36 W 1018,9 0,4 0,3
19.01.2020 08:00:00 -0,6 -0,7 32 17 58 31 W 1017,6 0,3 0,7
19.01.2020 07:00:00 -0,3 -0,4 31 17 55 30 W 1015,6 0,4 0,5
19.01.2020 06:00:00 0,0 -0,1 26 14 47 25 W 1014,0 0,9 0,6
19.01.2020 05:00:00 0,0 -0,1 28 15 49 27 W 1012,7 1,3 0,4
19.01.2020 04:00:00 0,3 0,2 27 15 53 28 W 1011,0 0,8 0,3
19.01.2020 03:00:00 0,3 0,2 26 14 45 24 W 1009,9 3,3 0,3
19.01.2020 02:00:00 0,8 0,2 26 14 45 24 W 1008,8 3,7 0,1
19.01.2020 01:00:00 0,3 -0,1 21 11 41 22 W 1007,8 2,5 0,2
19.01.2020 00:00:00 0,6 -1,3 14 8 36 19 SW 1006,6 1,7 0,1
18.01.2020 23:00:00 1,2 -2,6 19 11 38 21 W 1005,9 50 0,0
18.01.2020 22:00:00 0,8 -3,1 15 8 32 17 W 1005,8 50 0,0
18.01.2020 21:00:00 1,1 -3,0 13 7 30 16 W 1005,3 50 0,0
18.01.2020 20:00:00 1,0 -3,1 19 10 32 17 W 1004,9 50 0,0
18.01.2020 19:00:00 -0,1 -3,8 16 9 26 14 W 1004,4 50 0,0
18.01.2020 18:00:00 0,5 -5,1 9 5 24 13 SW 1003,8 50 0,0
18.01.2020 17:00:00 -1,8 -4,3 3 1 15 8 NNW 1003,3 50 0,0
18.01.2020 16:00:00 -3,6 -4,9 3 1 7 4 N 1002,8 28 0,0
18.01.2020 15:00:00 -3,1 -4,4 0 0 4 2 N 1002,3 50 0,0
18.01.2020 14:00:00 -2,5 -3,9 3 1 5 3 S 1001,8 50 0,0
18.01.2020 13:00:00 -2,2 -3,6 4 2 - - ESE 1001,5 50 0,0
18.01.2020 12:00:00 -2,1 -3,4 4 2 9 5 SE 1000,9 50 0,0
18.01.2020 11:00:00 -2,3 -3,6 3 2 13 7 NE 1000,7 44 0,0
18.01.2020 10:00:00 -1,8 -3,4 9 5 18 10 ESE 1000,4 50 0,0
18.01.2020 09:00:00 -1,9 -3,3 9 5 17 9 ESE 1000,3 50 0,0
18.01.2020 08:00:00 -1,5 -3,2 12 7 21 12 ESE 1000,2 50 0,0
18.01.2020 07:00:00 1,5 -1,9 11 6 28 15 S 999,8 50 0,0
18.01.2020 06:00:00 1,6 -1,8 12 7 34 18 SSW 1000,0 50 0,0
18.01.2020 05:00:00 2,2 -1,4 21 11 35 19 SW 1000,2 50 0,0
18.01.2020 04:00:00 2,3 -1,3 13 7 33 18 SSW 1000,7 50 0,0
18.01.2020 03:00:00 2,5 -0,8 14 8 31 17 SSW 1001,2 50 0,0
18.01.2020 02:00:00 2,6 -0,5 9 5 29 16 S 1001,6 50 0,0
18.01.2020 01:00:00 3,2 -0,4 16 9 - - S 1001,6 50 0,0
18.01.2020 00:00:00 3,3 -0,5 9 5 31 17 SSW 1002,1 50 0,0
17.01.2020 23:00:00 - -0,2 19 11 34 19 S 1002,0 50 0,0
17.01.2020 22:00:00 - -0,2 19 11 44 24 S 1001,9 50 0,0
17.01.2020 21:00:00 - 0,0 22 12 42 23 SSW 1002,4 50 0,0
17.01.2020 20:00:00 3,4 -0,2 17 9 42 23 S 1003,0 50 0,0
17.01.2020 19:00:00 3,3 0,0 19 10 43 23 SSW 1003,4 50 0,0
17.01.2020 18:00:00 3,1 -0,5 8 4 46 25 S 1004,1 50 0,0
17.01.2020 17:00:00 3,3 -0,9 21 12 48 26 SW 1003,3 50 0,0
17.01.2020 16:00:00 3,3 -0,7 21 12 46 25 SSW 1003,6 50 0,0
17.01.2020 15:00:00 3,3 -0,9 22 12 46 25 SSW 1004,4 50 0,0
17.01.2020 14:00:00 3,3 -1,3 24 13 49 26 SSW 1004,4 50 0,0
17.01.2020 13:00:00 3,0 -1,4 27 15 52 28 SSW 1004,1 50 0,0
17.01.2020 12:00:00 2,8 -1,4 18 10 51 28 SSW 1004,2 50 0,0
17.01.2020 11:00:00 3,0 -1,6 29 16 56 30 SSW 1003,0 50 0,0
17.01.2020 10:00:00 2,7 -1,3 23 12 50 27 SSW 1003,9 50 0,0
17.01.2020 09:00:00 1,7 -0,2 17 9 53 29 SSW 1004,2 12 0,1
17.01.2020 08:00:00 2,6 -1,8 19 11 43 23 SSW 1003,6 50 0,0
17.01.2020 07:00:00 1,9 -2,8 16 9 45 24 SSW 1005,4 50 0,0
17.01.2020 06:00:00 1,8 -4,1 15 8 46 25 S 1006,3 50 0,0
17.01.2020 05:00:00 1,7 -3,8 22 12 56 31 SW 1006,4 50 0,0
17.01.2020 04:00:00 1,5 -3,8 21 11 43 23 SSW 1007,7 50 0,0
17.01.2020 03:00:00 1,5 -5,2 21 11 48 26 SW 1008,7 50 0,0
17.01.2020 02:00:00 1,3 -5,2 23 13 44 24 SSW 1008,9 50 0,0
17.01.2020 01:00:00 0,5 -5,7 22 12 40 22 SSW 1009,4 50 0,0
17.01.2020 00:00:00 -0,9 -6,7 10 5 24 13 S 1009,9 50 0,0
16.01.2020 23:00:00 -0,6 -6,0 13 7 25 13 SW 1009,3 50 0,0
16.01.2020 22:00:00 0,1 -4,9 14 8 32 17 SSW 1009,5 50 0,0
16.01.2020 21:00:00 1,9 -3,6 16 8 29 16 SW 1008,2 50 0,0
16.01.2020 20:00:00 2,2 -1,1 13 7 31 17 W 1007,2 50 0,0
16.01.2020 19:00:00 2,7 -0,9 11 6 27 15 W 1006,6 50 0,0
16.01.2020 18:00:00 2,2 -0,2 15 8 36 19 WSW 1005,8 45 0,0
16.01.2020 17:00:00 1,3 -0,2 13 7 39 21 WSW 1004,8 16 0,1
16.01.2020 16:00:00 1,8 -1,5 11 6 35 19 WSW 1004,1 50 0,1
16.01.2020 15:00:00 1,4 -1,0 14 8 35 19 WSW 1003,7 3,9 0,1
16.01.2020 14:00:00 2,0 -2,0 11 6 31 17 WSW 1002,7 4,4 0,0
16.01.2020 13:00:00 1,4 -3,7 12 7 35 19 SW 1001,5 50 0,0
16.01.2020 12:00:00 -0,5 -4,9 12 7 29 15 SW 1001,2 50 0,0
16.01.2020 11:00:00 -0,7 -4,6 16 9 39 21 SW 1000,1 50 0,0
16.01.2020 10:00:00 0,2 -3,9 19 11 41 22 SSW 998,4 50 0,0
16.01.2020 09:00:00 0,1 -3,8 20 11 41 22 SSW 996,9 50 0,0
16.01.2020 08:00:00 0,8 -3,5 24 13 56 30 SSW 995,5 50 0,0
16.01.2020 07:00:00 0,5 -3,6 21 12 51 28 SSW 994,2 50 0,0
16.01.2020 06:00:00 0,0 -3,7 21 12 46 25 SSW 993,6 50 0,0
16.01.2020 05:00:00 -0,6 -4,5 18 10 45 24 SSW 993,1 50 0,0
16.01.2020 04:00:00 -0,6 -4,5 18 10 47 25 SSW 992,7 50 -
16.01.2020 03:00:00 -0,5 -4,9 27 14 51 27 SW 992,0 50 0,0
16.01.2020 02:00:00 -1,7 -6,1 25 13 46 25 SW 992,2 50 0,0
16.01.2020 01:00:00 -1,2 -6,0 24 13 43 23 SW 991,9 50 0,0
16.01.2020 00:00:00 -1,7 -6,4 13 7 45 25 SSW 992,3 50 0,0
15.01.2020 23:00:00 -0,9 -6,1 26 14 46 25 SSW 991,4 35 0,0
15.01.2020 22:00:00 -1,3 -6,8 22 12 45 25 SSW 991,1 50 0,0
15.01.2020 21:00:00 -0,8 -6,4 23 12 45 24 SSW 990,7 41 0,0
15.01.2020 20:00:00 -1,6 -6,5 19 11 38 21 SW 990,7 50 0,0
15.01.2020 19:00:00 -2,0 -6,4 20 11 39 21 S 990,3 50 0,0
15.01.2020 18:00:00 -2,1 -7,0 21 11 34 19 S 989,6 50 0,0
15.01.2020 17:00:00 -2,3 -7,2 15 8 31 17 SSW 988,9 50 0,0
15.01.2020 16:00:00 -2,8 -8,1 13 7 28 15 SW 988,4 50 0,0
15.01.2020 15:00:00 -1,0 -6,0 15 8 29 16 SW 987,1 50 0,0
15.01.2020 14:00:00 -0,4 -4,8 12 7 31 17 SW 986,1 50 0,0
15.01.2020 13:00:00 0,6 -4,1 16 9 35 19 W 984,6 50 0,0
15.01.2020 12:00:00 0,6 -2,5 23 12 48 26 W 983,5 50 0,0
15.01.2020 11:00:00 0,5 -2,1 6 3 22 12 SSW 982,0 37 0,0
15.01.2020 10:00:00 0,1 -1,8 8 5 29 16 SW 980,7 50 0,0
15.01.2020 09:00:00 -0,5 -1,9 12 7 28 15 SSW 979,4 39 0,0
15.01.2020 08:00:00 -0,1 -0,7 9 5 29 15 S 979,1 3,0 1,1
15.01.2020 07:00:00 0,7 -1,9 10 6 29 15 S 979,1 3,7 0,5
15.01.2020 06:00:00 1,6 -2,7 11 6 42 23 S 979,1 6 0,3
15.01.2020 05:00:00 1,2 -3,1 19 11 35 19 SSE 979,9 15 0,0
15.01.2020 04:00:00 0,9 -2,5 16 9 44 24 S 981,0 3,0 0,0
15.01.2020 03:00:00 0,8 -4,8 25 14 48 26 S 982,1 50 0,0
15.01.2020 02:00:00 0,9 -6,2 18 10 42 23 S 983,4 50 0,0
15.01.2020 01:00:00 -0,4 -7,0 14 7 28 15 SSW 984,2 50 0,0
15.01.2020 00:00:00 -0,7 -6,5 14 7 36 19 S 985,2 50 0,0
14.01.2020 23:00:00 -0,5 -6,3 18 10 42 23 SSW 985,9 50 0,0
14.01.2020 22:00:00 -1,9 -6,5 14 8 29 16 SSW 986,0 50 0,0
14.01.2020 21:00:00 -1,4 -5,8 15 8 32 18 SSW 985,7 50 0,0
14.01.2020 20:00:00 -0,4 -5,6 16 9 36 20 SW 984,9 50 0,0
14.01.2020 19:00:00 0,8 -3,3 21 11 39 21 SSW 984,1 50 0,0
14.01.2020 18:00:00 0,9 -3,2 16 9 40 22 SSW 983,5 50 0,0
14.01.2020 17:00:00 1,3 -3,0 21 11 44 24 SSW 982,9 50 0,0
14.01.2020 16:00:00 1,1 -3,2 20 11 50 27 SSW 982,8 50 0,0
14.01.2020 15:00:00 1,1 -3,0 22 12 47 26 SSW 982,8 50 0,0
14.01.2020 14:00:00 1,0 -2,9 19 11 48 26 SSW 982,1 50 0,0
14.01.2020 13:00:00 0,9 -2,5 21 12 53 29 SSW 981,9 50 0,0
14.01.2020 12:00:00 1,0 -2,4 23 13 57 31 S 981,9 50 0,0
14.01.2020 11:00:00 1,7 -2,8 26 14 53 29 S 981,9 50 0,0
14.01.2020 10:00:00 1,7 -3,0 27 15 57 31 S 981,8 50 0,0
14.01.2020 09:00:00 1,3 -2,6 27 15 58 32 S 982,8 19 0,0
14.01.2020 08:00:00 1,5 -3,4 29 16 72 39 S 983,7 50 0,0

tt = Température de l'air
td = dewpoint
ff = Vitesse du vent
fx = gusts
dd = Direction du vent
ppp = reduced air pressure
vv = visibility
rr = Quantités de précipitations

stations d'obs. à proximité